Regional Weather Roundup
Issued by NWS

Home | Current Version | Previous Version | Text Only | Print | Product List | Glossary Off
Versions: 1 2 3 4 5 6 7 8 9 10 11 12 13 14 15 16 17 18 19 20 21 22 23 24 25 26 27 28 29 30 31 32 33 34 35 36 37 38 39 40 41 42 43 44 45 46 47 48 49 50

000
ASUS43 KFSD 231110
RWRSD

WEATHER ROUNDUP FOR SOUTH DAKOTA
NATIONAL WEATHER SERVICE SIOUX FALLS SD
600 AM CDT SAT SEP 23 2017

NOTE: "FAIR" INDICATES FEW OR NO CLOUDS BELOW 12,000 FEET WITH NO
SIGNIFICANT WEATHER AND/OR OBSTRUCTIONS TO VISIBILITY.


SDZ001>005-009-010-012>017-231200-
NORTHWEST AND NORTH CENTRAL SOUTH DAKOTA

CITY           SKY/WX    TMP DP  RH WIND       PRES   REMARKS
BUFFALO          N/A     43  40  89 N6        30.01F
FAITH            N/A     44  44 100 N15       30.03S
MOBRIDGE       CLOUDY    51  46  83 N10       29.99F
$$

SDZ012>016-024>037-041>051-057-063-072>074-231200-
SOUTHWEST AND SOUTH CENTRAL SOUTH DAKOTA

CITY           SKY/WX    TMP DP  RH WIND       PRES   REMARKS
RAPID CTY ARPT NOT AVBL
PIERRE         CLOUDY    49  47  93 N7        30.01R
CUSTER         FOG       39  38  96 CALM      30.04R VSB 1/2
ELLSWORTH AFB  CLOUDY    44  44 100 N10       30.05
PHILIP         CLOUDY    49  43  80 N10       30.02F
PINE RIDGE     CLOUDY    45  42  89 VRB3      30.03R
SPEARFISH      CLOUDY    41  41 100 NW5       30.09R
WINNER         CLOUDY    51  49  92 N12       29.97F
$$

SDZ004>011-016>023-039-040-231200-
NORTHEAST SOUTH DAKOTA

CITY           SKY/WX    TMP DP  RH WIND       PRES   REMARKS
ABERDEEN       CLOUDY    51  51 100 N9        29.94F
WATERTOWN      CLOUDY    55  55 100 N9        29.92F
BROOKINGS      CLOUDY    57  55  93 N12       29.95S
SISSETON         N/A     55  54  96 NW14      29.94F
$$

SDZ017-020-022-023-036>040-048>070-231200-
SOUTHEAST SOUTH DAKOTA

CITY           SKY/WX    TMP DP  RH WIND       PRES   REMARKS
SIOUX FALLS    CLOUDY    60  59  96 N8        29.93R
HURON          CLOUDY    54  52  93 N8        29.93F
CHAMBERLAIN    CLOUDY    53  53 100 NW7       29.97R
MITCHELL       CLOUDY    55  53  93 N9        29.94F
YANKTON        CLOUDY    56  52  86 NW10      29.94R
$$

ABBREVIATIONS USED IN REMARKS
   TC - TEMPERATURE IN CELSIUS
  WCI - WIND CHILL INDEX
   HX - HEAT INDEX
  VSB - VISIBILITY





USA.gov is the U.S. government's official web portal to all federal, state and local government web resources and services.